Location: *
(51.1248°S, 108.4023°W)
Time: 05:00:24
(UTC+00:00)

Lacrosse 5 - Pass Details

Date: 15 June 2021
Orbit: 715 x 724 km, 57.0° (Epoch: 28 July)

Event Time Altitude Azimuth Distance (km) Brightness Sun altitude
Exits shadow 14:26:35 - 240° (WSW) 2,322 3.8 -7.4°
Reaches altitude 10° 14:26:47 10° 240° (WSW) 2,246 3.7 -7.4°
Maximum altitude 14:31:54 58° 160° (SSE) 858 2.2 -6.7°
Drops below altitude 10° 14:37:00 10° 81° (E) 2,231 5.8 -6.0°
Sets 14:39:25 0° 76° (ENE) 3,148 6.9 -5.7°
